• In Hungary
  • List of Countries
  • For 7 days
  • Water Temperature
  • Satellite Maps
  • Weather Map
  • News
  • Weather Widgets
  • user-avatar
    Login

    Hourly Weather Konso

    Today, 19 January, Friday

    Time Temperature Precipitation Wind Pressure Humidity
    00:00 +21°C° 0 mm 1 mps 646 mmHg 32%
    01:00 +20°C° 0 mm 1 mps 645 mmHg 33%
    02:00 +20°C° 0 mm 1 mps 645 mmHg 34%
    03:00 +20°C° 0 mm 1 mps 645 mmHg 35%
    04:00 +19°C° 0 mm 1 mps 645 mmHg 35%
    05:00 +19°C° 0 mm 1 mps 645 mmHg 35%
    06:00 +21°C° 0 mm 1 mps 646 mmHg 32%
    07:00 +23°C° 0 mm 2 mps 647 mmHg 29%
    08:00 +26°C° 0 mm 2 mps 648 mmHg 27%
    09:00 +28°C° 0 mm 2 mps 648 mmHg 26%
    10:00 +30°C° 0 mm 2 mps 648 mmHg 24%
    11:00 +32°C° 0 mm 2 mps 649 mmHg 23%
    12:00 +32°C° 0 mm 1 mps 648 mmHg 22%
    13:00 +33°C° 0 mm 1 mps 648 mmHg 21%
    14:00 +33°C° 0 mm 1 mps 647 mmHg 20%
    15:00 +32°C° 0 mm 1 mps 647 mmHg 21%
    16:00 +31°C° 0 mm 1 mps 646 mmHg 22%
    17:00 +30°C° 0 mm 1 mps 646 mmHg 23%
    18:00 +28°C° 0 mm 1 mps 646 mmHg 26%
    19:00 +27°C° 0 mm 1 mps 646 mmHg 30%
    20:00 +25°C° 0 mm 1 mps 646 mmHg 33%
    21:00 +24°C° 0 mm 1 mps 647 mmHg 34%
    22:00 +24°C° 0 mm 1 mps 647 mmHg 35%
    23:00 +24°C° 0 mm 1 mps 647 mmHg 36%

    Tomorrow, 20 January, Saturday

    Time Temperature Precipitation Wind Pressure Humidity
    00:00 +23°C° 0 mm 1 mps 647 mmHg 37%
    01:00 +23°C° 0 mm 1 mps 647 mmHg 37%
    02:00 +23°C° 0 mm 1 mps 646 mmHg 38%
    03:00 +22°C° 0 mm 1 mps 646 mmHg 39%
    04:00 +21°C° 0 mm 2 mps 646 mmHg 40%
    05:00 +20°C° 0 mm 2 mps 646 mmHg 41%
    06:00 +23°C° 0 mm 2 mps 647 mmHg 39%
    07:00 +24°C° 0 mm 3 mps 648 mmHg 37%
    08:00 +25°C° 0 mm 3 mps 649 mmHg 35%
    09:00 +27°C° 0 mm 3 mps 649 mmHg 32%
    10:00 +29°C° 0 mm 3 mps 649 mmHg 29%
    11:00 +31°C° 0 mm 3 mps 649 mmHg 26%
    12:00 +31°C° 0 mm 3 mps 649 mmHg 25%
    13:00 +32°C° 0 mm 2 mps 648 mmHg 25%
    14:00 +32°C° 0 mm 2 mps 647 mmHg 24%
    15:00 +31°C° 0 mm 2 mps 647 mmHg 26%
    16:00 +30°C° 0 mm 1 mps 647 mmHg 27%
    17:00 +29°C° 0 mm 1 mps 646 mmHg 29%
    18:00 +27°C° 0 mm 1 mps 646 mmHg 32%
    19:00 +26°C° 0 mm 2 mps 647 mmHg 35%
    20:00 +24°C° 0 mm 2 mps 647 mmHg 39%
    21:00 +24°C° 0 mm 2 mps 647 mmHg 41%
    22:00 +23°C° 0 mm 2 mps 647 mmHg 43%
    23:00 +21°C° 0 mm 2 mps 647 mmHg 45%

    Day after tomorrow, 21 January, Sunday

    Time Temperature Precipitation Wind Pressure Humidity
    00:00 +20°C° 0 mm 2 mps 646 mmHg 47%
    01:00 +20°C° 0 mm 2 mps 646 mmHg 49%
    02:00 +19°C° 0 mm 2 mps 645 mmHg 51%
    03:00 +19°C° 0 mm 2 mps 645 mmHg 52%
    04:00 +18°C° 0 mm 2 mps 645 mmHg 54%
    05:00 +18°C° 0 mm 2 mps 645 mmHg 56%
    06:00 +20°C° 0 mm 3 mps 646 mmHg 50%
    07:00 +22°C° 0 mm 3 mps 647 mmHg 44%
    08:00 +25°C° 0 mm 4 mps 648 mmHg 39%
    09:00 +27°C° 0 mm 4 mps 648 mmHg 33%
    10:00 +29°C° 0 mm 4 mps 649 mmHg 28%
    11:00 +33°C° 0 mm 4 mps 649 mmHg 23%
    12:00 +33°C° 0 mm 3 mps 648 mmHg 21%
    13:00 +34°C° 0 mm 3 mps 648 mmHg 19%
    14:00 +35°C° 0 mm 2 mps 647 mmHg 17%
    15:00 +34°C° 0 mm 3 mps 647 mmHg 18%
    16:00 +33°C° 0 mm 3 mps 646 mmHg 19%
    17:00 +31°C° 0 mm 3 mps 646 mmHg 19%
    18:00 +29°C° 0 mm 2 mps 646 mmHg 23%
    19:00 +26°C° 0 mm 2 mps 646 mmHg 26%
    20:00 +24°C° 0 mm 2 mps 647 mmHg 30%
    21:00 +23°C° 0 mm 2 mps 646 mmHg 32%
    22:00 +23°C° 0 mm 2 mps 646 mmHg 34%
    23:00 +21°C° 0 mm 2 mps 646 mmHg 36%

    22 January, Monday

    Time Temperature Precipitation Wind Pressure Humidity
    00:00 +20°C° 0 mm 2 mps 646 mmHg 38%
    01:00 +20°C° 0 mm 2 mps 645 mmHg 40%
    02:00 +19°C° 0 mm 2 mps 645 mmHg 41%
    03:00 +19°C° 0 mm 2 mps 645 mmHg 44%
    04:00 +18°C° 0 mm 2 mps 645 mmHg 46%
    05:00 +18°C° 0 mm 2 mps 645 mmHg 48%
    06:00 +20°C° 0 mm 3 mps 646 mmHg 43%
    07:00 +22°C° 0 mm 3 mps 648 mmHg 38%
    08:00 +25°C° 0 mm 4 mps 649 mmHg 33%
    09:00 +27°C° 0 mm 4 mps 649 mmHg 29%
    10:00 +29°C° 0 mm 3 mps 649 mmHg 25%
    11:00 +31°C° 0 mm 3 mps 649 mmHg 21%
    12:00 +33°C° 0 mm 3 mps 648 mmHg 20%
    13:00 +32°C° 0 mm 2 mps 648 mmHg 19%
    14:00 +34°C° 0 mm 2 mps 647 mmHg 18%
    15:00 +32°C° 0 mm 2 mps 646 mmHg 20%
    16:00 +31°C° 0 mm 2 mps 646 mmHg 22%
    17:00 +30°C° 0 mm 2 mps 646 mmHg 23%
    18:00 +28°C° 0 mm 2 mps 646 mmHg 27%
    19:00 +26°C° 0 mm 2 mps 646 mmHg 31%
    20:00 +24°C° 0 mm 2 mps 646 mmHg 35%
    21:00 +23°C° 0 mm 2 mps 646 mmHg 37%
    22:00 +23°C° 0 mm 2 mps 646 mmHg 39%
    23:00 +21°C° 0 mm 2 mps 646 mmHg 41%

    23 January, Tuesday

    Time Temperature Precipitation Wind Pressure Humidity
    00:00 +21°C° 0 mm 2 mps 646 mmHg 41%
    01:00 +21°C° 0 mm 2 mps 645 mmHg 42%
    02:00 +20°C° 0 mm 2 mps 645 mmHg 42%
    03:00 +20°C° 0 mm 2 mps 645 mmHg 43%
    04:00 +19°C° 0 mm 2 mps 645 mmHg 45%
    05:00 +18°C° 0 mm 2 mps 645 mmHg 47%
    06:00 +20°C° 0 mm 2 mps 646 mmHg 43%
    07:00 +23°C° 0 mm 2 mps 647 mmHg 40%
    08:00 +25°C° 0 mm 3 mps 648 mmHg 36%
    09:00 +27°C° 0 mm 3 mps 648 mmHg 32%
    10:00 +29°C° 0 mm 3 mps 648 mmHg 28%
    11:00 +31°C° 0 mm 3 mps 648 mmHg 24%
    12:00 +31°C° 0 mm 2 mps 647 mmHg 23%
    13:00 +31°C° 0 mm 2 mps 647 mmHg 23%
    14:00 +32°C° 0 mm 2 mps 646 mmHg 22%
    15:00 +31°C° 0 mm 2 mps 646 mmHg 23%
    16:00 +30°C° 0 mm 2 mps 645 mmHg 25%
    17:00 +30°C° 0 mm 2 mps 645 mmHg 26%
    18:00 +28°C° 0 mm 2 mps 645 mmHg 30%
    19:00 +26°C° 0 mm 2 mps 645 mmHg 34%
    20:00 +24°C° 0 mm 2 mps 645 mmHg 38%
    21:00 +24°C° 0 mm 2 mps 645 mmHg 39%
    22:00 +23°C° 0 mm 2 mps 645 mmHg 39%
    23:00 +23°C° 0 mm 2 mps 645 mmHg 40%

    24 January, Wednesday

    Time Temperature Precipitation Wind Pressure Humidity
    00:00 +23°C° 0 mm 1 mps 645 mmHg 41%
    01:00 +22°C° 0 mm 1 mps 645 mmHg 41%
    02:00 +22°C° 0 mm 1 mps 644 mmHg 41%
    03:00 +21°C° 0 mm 1 mps 644 mmHg 43%
    04:00 +19°C° 0 mm 2 mps 644 mmHg 45%
    05:00 +19°C° 0 mm 2 mps 645 mmHg 46%
    06:00 +20°C° 0 mm 2 mps 645 mmHg 41%
    07:00 +23°C° 0 mm 2 mps 646 mmHg 36%
    08:00 +25°C° 0 mm 2 mps 647 mmHg 31%
    09:00 +28°C° 0 mm 2 mps 647 mmHg 27%
    10:00 +30°C° 0 mm 2 mps 647 mmHg 24%
    11:00 +32°C° 0 mm 2 mps 648 mmHg 20%
    12:00 +33°C° 0 mm 1 mps 647 mmHg 19%
    13:00 +33°C° 0 mm 1 mps 646 mmHg 19%
    14:00 +34°C° 0 mm 1 mps 646 mmHg 18%
    15:00 +33°C° 0 mm 1 mps 645 mmHg 19%
    16:00 +31°C° 0 mm 1 mps 645 mmHg 21%
    17:00 +30°C° 0 mm 1 mps 645 mmHg 22%
    18:00 +28°C° 0 mm 1 mps 645 mmHg 25%
    19:00 +27°C° 0 mm 1 mps 645 mmHg 29%
    20:00 +25°C° 0 mm 1 mps 645 mmHg 32%
    21:00 +24°C° 0 mm 1 mps 645 mmHg 33%
    22:00 +24°C° 0 mm 1 mps 645 mmHg 34%
    23:00 +24°C° 0 mm 1 mps 645 mmHg 35%
    Show more